Погода в Никифарове

Россия / Республика Башкортостан     53°49′34″N   54°41′56″E
темп.,
°C
ветер,
м/с
пор.,
м/с
влажн.,
%
обл.,
%
осадки,
мм/ч
давл.,
гПа
погр.,
м
24 января, вс
вс2423:00−15ю51294100 0.4 1029357
02:00−14ю51192100 0.2 1029324
05:00−12ююз51193100 0.4 1028302
08:00−9ююз4995100 0.7 1027282
11:00−6ююз4896100 1.4 1026226
14:00−3ююз5997100 1.1 1026265
17:00+1зюз612100100 1.9 1027370
20:00+1зюз61098100 0.1 1028335
25 января, пн
пн2523:00−4юз5119593 0.2 1030293
02:00−4юз5119794 0.0 1031307
05:00−3юз7119797 0.0 1032372
08:00−3юз71097100 0.0 1032433
11:00−1юз61097100 0.1 1034624
14:00−1юз6991100 0.1 1034735
17:00−1ююз5990100 0.1 1033596
20:00−4ююз5995100 0.0 1033365
26 января, вт
вт2623:00−4ююз5995100 0.1 1033508
02:00−2ююз61092100 0.0 1033623
05:00−2ююз61194100 0.1 1033624
08:00−2ююз51193100 0.0 1032607
11:00−6ююз51192100 0.0 1033352
14:00−6ююз51093100 0.0 1033360
17:00−7ююз41191100 0.0 1033301
20:00−8ююз51190100 0.0 1033259
27 января, ср
ср2723:00−9ююз51291100 0.0 1032244
02:00−8ююз51292100 0.0 1032283
05:00−9ююз41092100 0.0 1032268
08:00−9ююз4109393 0.0 1032237
11:00−7ююз6129196 0.0 1031338
14:00−6ююз61289100 0.0 1031391
17:00−6ю51189100 0.0 1030338
20:00−9ююз499099 0.0 1030211
28 января, чт
чт2823:00−9ю4119099 0.0 1030213
02:00−8ю51390100 0.0 1029276
05:00−8ю41290100 0.0 1029284
08:00−8ю4118887 0.0 1028223
11:00−7ю4128791 0.0 1027336
14:00−5ю51382100 0.0 1026444
17:00−6ю41284100 0.0 1025347
20:00−8ю41185100 0.0 1024226